FW5905 Weather Reports


Display with metric or nautical units.
time (UTC)temp
F
wind
direction
speed
MPH
gust
MPH
rain 1hr
in
rain 24hr
in
rain mn
in
humidity
%
barometer
mb
20260506194044 60 13 0.0 1.0 0.00 0.33 0.33 94 1012.7
20260506193024 60 14 1.0 2.0 0.00 0.33 0.33 94 1012.5
20260506192023 61 14 1.0 2.0 0.00 0.33 0.33 93 1012.2
20260506191024 61 16 0.0 2.0 0.00 0.33 0.33 92 1012.2
20260506190024 61 22 1.0 2.0 0.00 0.33 0.33 91 1012.1
20260506185024 61 16 1.0 2.0 0.00 0.33 0.33 89 1012.0
20260506184024 62 20 1.0 2.0 0.00 0.33 0.33 88 1011.9
20260506183044 62 21 1.0 3.0 0.00 0.33 0.33 88 1011.7
20260506182024 62 23 1.0 3.0 0.00 0.33 0.33 88 1011.7
20260506181023 62 30 1.0 2.0 0.00 0.33 0.33 89 1011.9
20260506180024 62 30 1.0 2.0 0.00 0.33 0.33 90 1011.8
20260506175024 62 12 0.0 2.0 0.00 0.33 0.33 90 1011.8
20260506174024 62 28 2.0 4.0 0.00 0.33 0.33 91 1011.6
20260506173024 62 12 1.0 2.0 0.00 0.33 0.33 93 1011.6
20260506172024 62 34 1.0 3.0 0.00 0.33 0.33 93 1011.7
20260506171044 62 52 1.0 3.0 0.00 0.33 0.33 92 1011.7
20260506170024 62 18 1.0 2.0 0.00 0.33 0.33 93 1011.7
20260506165024 62 19 1.0 3.0 0.00 0.33 0.33 92 1011.7
20260506164023 62 41 2.0 4.0 0.00 0.33 0.33 93 1011.4
20260506163023 63 53 1.0 3.0 0.00 0.33 0.33 91 1011.5
20260506162024 64 79 2.0 3.0 0.00 0.33 0.33 88 1011.7
20260506161024 65 23 1.0 3.0 0.00 0.33 0.33 83 1011.6
20260506160044 65 28 1.0 2.0 0.00 0.33 0.33 84 1011.5
20260506155024 64 14 1.0 3.0 0.00 0.33 0.33 85 1011.5
20260506154024 64 34 1.0 3.0 0.00 0.33 0.33 87 1011.6
20260506153024 64 38 2.0 4.0 0.00 0.33 0.33 86 1011.6
20260506152023 64 40 3.0 6.0 0.00 0.33 0.33 88 1011.6
20260506151044 64 29 3.0 6.0 0.00 0.33 0.33 91 1011.6
20260506150024 64 35 2.0 7.0 0.00 0.33 0.33 92 1011.8
20260506145124 64 28 2.0 4.0 0.00 0.33 0.33 93 1011.8
20260506144024 63 22 1.0 4.0 0.00 0.33 0.33 94 1011.7
20260506143024 63 41 2.0 7.0 0.00 0.33 0.33 95 1011.8
20260506142024 63 41 2.0 6.0 0.00 0.33 0.33 97 1011.8
20260506141023 62 21 2.0 7.0 0.00 0.33 0.33 97 1012.0
20260506140024 62 32 3.0 6.0 0.07 0.33 0.33 98 1012.0
20260506135024 61 43 2.0 6.0 0.08 0.33 0.33 99 1012.1
20260506134024 61 39 2.0 6.0 0.08 0.33 0.33 99 1012.1
20260506133044 60 33 2.0 6.0 0.10 0.33 0.33 99 1012.2
20260506132025 60 49 1.0 3.0 0.11 0.33 0.33 99 1012.2
20260506131024 60 39 1.0 4.0 0.11 0.33 0.33 99 1012.2
20260506130044 60 42 3.0 6.0 0.16 0.26 0.26 99 1012.1
20260506125044 60 20 2.0 7.0 0.25 0.25 0.25 99 1012.3
20260506124024 60 62 2.0 4.0 0.25 0.25 0.25 99 1012.2
20260506123024 60 41 2.0 4.0 0.23 0.23 0.23 98 1012.1
20260506122044 60 38 3.0 9.0 0.22 0.22 0.22 98 1011.8
20260506121024 61 51 3.0 7.0 0.22 0.22 0.22 96 1011.7
20260506120024 62 343 1.0 3.0 0.10 0.10 0.10 94 1012.4
20260506115024 64 33 3.0 7.0 0.00 0.00 0.00 89 1011.8
20260506114024 65 36 2.0 4.0 0.00 0.00 0.00 84 1011.6
20260506112524 68 53 2.0 6.0 0.00 0.00 0.00 76 1011.5
20260506111524 69 38 2.0 4.0 0.00 0.00 0.00 72 1011.4
20260506110524 70 44 1.0 3.0 0.00 0.00 0.00 70 1011.4
20260506105525 70 37 2.0 4.0 0.00 0.00 0.00 70 1011.8
20260506105024 70 27 2.0 4.0 0.00 0.00 0.00 68 1011.7
20260506104027 69 43 2.0 6.0 0.00 0.00 0.00 71 1011.8
20260506103047 70 44 2.0 7.0 0.00 0.00 0.00 70 1011.9
20260506102025 70 45 2.0 6.0 0.00 0.00 0.00 69 1011.9
20260506101026 71 23 2.0 6.0 0.00 0.00 0.00 67 1011.9
20260506100024 72 34 2.0 4.0 0.00 0.00 0.00 64 1012.0
20260506095024 72 10 1.0 3.0 0.00 0.00 0.00 66 1011.9
20260506094024 71 4 1.0 4.0 0.00 0.00 0.00 68 1011.9
20260506093024 71 16 1.0 3.0 0.00 0.00 0.00 67 1012.0
20260506092023 71 16 2.0 3.0 0.00 0.00 0.00 68 1011.9
20260506091023 69 31 1.0 4.0 0.00 0.00 0.00 72 1011.9
20260506090024 70 31 1.0 4.0 0.00 0.00 0.00 73 1011.9
20260506085044 70 58 2.0 4.0 0.00 0.00 0.00 74 1011.8
20260506084024 68 32 2.0 4.0 0.00 0.00 0.00 76 1011.9
20260506083024 68 24 2.0 4.0 0.00 0.00 0.00 77 1012.1
20260506082024 68 44 1.0 3.0 0.00 0.00 0.00 78 1012.0
20260506081024 67 27 1.0 3.0 0.00 0.00 0.00 79 1012.0
20260506073024 68 26 1.0 3.0 0.00 0.00 0.00 80 1011.9
20260506072023 67 15 1.0 3.0 0.00 0.00 0.00 82 1011.9
20260506071024 67 16 1.0 2.0 0.00 0.00 0.00 82 1011.9
20260506070104 65 25 1.0 2.0 0.00 0.00 0.00 85 1011.9
20260506062024 62 14 1.0 2.0 0.00 0.00 0.00 99 1012.0
20260506061044 61 16 0.0 2.0 0.00 0.00 0.00 99 1012.0
20260506051024 54 0.0 0.0 0.00 0.00 0.00 99 1011.7
20260506045024 53 0.0 0.0 0.00 0.00 0.00 99 1011.5
20260506044024 54 0.0 0.0 0.00 0.00 0.00 99 1011.3
20260506043024 55 31 0.0 1.0 0.00 0.00 0.00 99 1011.4
20260506042044 55 26 0.0 1.0 0.00 0.00 0.00 99 1011.3
20260506041024 55 24 0.0 2.0 0.00 0.00 0.00 99 1011.2
20260506040023 55 29 1.0 2.0 0.00 0.00 0.00 99 1011.1
20260506035023 54 0.0 0.0 0.00 0.00 0.00 99 1010.9
20260506034023 54 0.0 0.0 0.00 0.01 0.00 99 1010.8
20260506033023 54 0.0 0.0 0.00 0.01 0.00 99 1010.8
20260506032024 54 0.0 0.0 0.00 0.01 0.00 99 1010.8
20260506031024 55 0.0 0.0 0.00 0.01 0.00 99 1010.7
20260506030024 54 0.0 0.0 0.00 0.01 0.00 99 1010.8
20260506025023 54 0.0 0.0 0.00 0.01 0.00 99 1010.6
20260506024023 53 0.0 0.0 0.00 0.01 0.00 99 1010.6
20260506023044 54 0.0 0.0 0.00 0.01 0.00 99 1010.6
20260506022043 54 0.0 0.0 0.00 0.01 0.00 99 1010.7
20260506021023 54 0.0 0.0 0.00 0.01 0.00 99 1010.6
20260506020044 54 0.0 0.0 0.00 0.01 0.00 99 1010.7
20260506015024 54 0.0 0.0 0.00 0.01 0.00 99 1011.0
20260506014024 54 0.0 0.0 0.00 0.01 0.00 99 1010.9
20260506013024 55 0.0 0.0 0.00 0.01 0.00 99 1011.0
20260506012023 54 0.0 0.0 0.00 0.01 0.00 99 1010.9
20260506011023 54 0.0 0.0 0.00 0.01 0.00 99 1011.0
20260506010024 54 0.0 0.0 0.00 0.01 0.00 99 1011.0
20260506005024 55 0.0 0.0 0.00 0.01 0.00 99 1011.1
20260506004024 56 0.0 0.0 0.00 0.01 0.00 99 1011.3
20260506003024 56 0.0 0.0 0.00 0.01 0.00 99 1011.3
20260506002024 56 0.0 0.0 0.00 0.01 0.00 99 1011.6
20260506001024 56 329 0.0 1.0 0.00 0.01 0.00 99 1011.7
20260506000023 56 0.0 0.0 0.00 0.01 0.00 99 1011.7
20260505235044 56 15 0.0 1.0 0.00 0.01 0.01 99 1011.7
20260505234023 57 4 0.0 1.0 0.00 0.01 0.01 99 1011.7
20260505233023 57 0.0 0.0 0.00 0.01 0.01 99 1011.7
20260505232024 58 345 0.0 1.0 0.00 0.01 0.01 99 1011.5
20260505231024 58 0.0 0.0 0.00 0.01 0.01 99 1011.5
20260505230044 58 0.0 0.0 0.00 0.01 0.01 99 1011.5
20260505225028 59 0.0 0.0 0.00 0.01 0.01 99 1011.4
20260505224024 59 345 0.0 1.0 0.00 0.01 0.01 99 1011.7
20260505223023 59 0.0 0.0 0.00 0.01 0.01 99 1011.7
20260505222024 59 0.0 0.0 0.00 0.01 0.01 99 1011.8
20260505221024 59 328 0.0 1.0 0.00 0.01 0.01 99 1011.9
20260505220024 60 0.0 2.0 0.00 0.01 0.01 99 1011.9
20260505215024 60 291 1.0 2.0 0.00 0.01 0.01 99 1011.9
20260505214024 60 324 0.0 2.0 0.00 0.01 0.01 99 1012.0
20260505213024 60 322 0.0 2.0 0.00 0.01 0.01 99 1011.9
20260505212024 60 294 1.0 2.0 0.00 0.01 0.01 98 1011.9
20260505211024 60 319 0.0 1.0 0.00 0.01 0.01 98 1011.8
20260505210024 60 318 0.0 2.0 0.00 0.01 0.01 97 1011.9
20260505205024 60 324 0.0 2.0 0.00 0.01 0.01 97 1011.7
20260505204024 61 284 1.0 2.0 0.00 0.01 0.01 97 1011.7
20260505203044 61 307 1.0 3.0 0.00 0.01 0.01 96 1011.6
20260505202024 61 309 1.0 1.0 0.00 0.01 0.01 95 1011.6
20260505201024 61 317 0.0 1.0 0.00 0.01 0.01 95 1011.4
20260505200024 61 284 1.0 2.0 0.00 0.01 0.01 94 1011.3
20260505195024 62 224 2.0 4.0 0.00 0.01 0.01 93 1011.0